BEIDOU-2 IGSO-4

Last updated on Fri Jul 11 2025 00:02:43 GMT+0000 (Coordinated Universal Time)

1 37763U 11038A 25190.39489278 .00000022 00000+0 00000+0 0 9998 2 37763 54.5825 168.7436 0144503 231.2281 124.9514 1.00273447 51200
UTC large
Height (km)
Speed (km/s)
/
Latitude / Longitude
Inclination (degrees)
Orbital Period (minutes)
Azimuth
Elevation
Range (km)
Doppler Factor

Next 0 passes for location: London (51.5072 / 0.1276)

Sorry there are no passes over London.